PROGRESS-M 24M is no longer on orbit PROGRESS-M 24M is classified as:
1 40097U 14042A 14323.76943521 .00012624 00000-0 19167-3 0 9993 2 40097 051.6463 047.6700 0045282 325.6861 126.9328 15.53825388 18450